Regional Weather Roundup
Issued by NWS

Home | Current Version | Previous Version | Graphics & Text | Print | Product List | Glossary On
Versions: 1 2 3 4 5 6 7 8 9 10 11 12 13 14 15 16 17 18 19 20 21 22 23 24 25 26 27 28 29 30 31 32 33 34 35 36 37 38 39 40 41 42 43 44 45 46 47 48 49 50
000
ASUS43 KMKX 301900
RWRWI

WISCONSIN REGIONAL WEATHER ROUNDUP
NATIONAL WEATHER SERVICE MILWAUKEE/SULLIVAN WI
200 PM CDT THU MAR 30 2017

NOTE: "FAIR" INDICATES FEW OR NO CLOUDS BELOW 12,000 FEET WITH NO
SIGNIFICANT WEATHER AND/OR OBSTRUCTIONS TO VISIBILITY.

WIZ001-002-006>008-014>016-023>028-302000-
NORTHWEST WISCONSIN

CITY           SKY/WX    TMP DP  RH WIND       PRES   REMARKS
SUPERIOR ARPT  PTSUNNY   39  34  80 NE16G25   29.96F WCI  30
ASHLAND        MOSUNNY   45  31  58 NE18      29.93F
HAYWARD        CLOUDY    49  31  49 VRB7      29.87F
SIREN          CLOUDY    48  32  54 E10       29.87F
CUMBERLAND     CLOUDY    45  32  61 E13       29.86S
RICE LAKE      CLOUDY    46  33  59 NE15      29.87F
CHETEK         CLOUDY    45  33  64 E12G17    29.86F
LADYSMITH      CLOUDY    46  33  60 NE14      29.88F
EAU CLAIRE     NOT AVBL
MENOMONIE      CLOUDY    43  35  75 NE14G20   29.85S
NEW RICHMOND   CLOUDY    47  33  58 E15       29.85R
OSCEOLA        CLOUDY    48  35  60 E13       29.88S
$$

WIZ003>005-009-010-017-018-302000-
NORTH CENTRAL WISCONSIN

CITY           SKY/WX    TMP DP  RH WIND       PRES   REMARKS
MANITOWISH WTR CLOUDY    42  26  53 E8        29.90F
ARBOR VITAE    CLOUDY    44  30  58 E6        29.90R
WOODRUFF       CLOUDY    44  30  58 E6        29.90R
RHINELANDER    CLOUDY    42  31  64 E15       29.90F
EAGLE RIVER    CLOUDY    43  29  57 E12       29.91R
LAND O LAKES   CLOUDY    43  29  57 SE9       29.93F
PHILLIPS       CLOUDY    44  31  60 E10G16    29.87S
TOMAHAWK       CLOUDY    41  31  67 E9        29.90S
MEDFORD        CLOUDY    39  32  77 E18       29.86S WCI  29
MERRILL        CLOUDY    40  33  77 E9        29.89S WCI  33
$$

WIZ029-030-035-036-043>047-302000-
CENTRAL WISCONSIN

CITY           SKY/WX    TMP DP  RH WIND       PRES   REMARKS
WAUSAU         CLOUDY    38  33  82 E12       29.87R WCI  30
MOSINEE        CLOUDY    37  36  93 E16G23    29.87S WCI  28
MARSHFIELD     LGT RAIN  38  34  85 E15       29.83S WCI  29
STEVENS POINT  CLOUDY    34  33  96 NE13G21   29.87R WCI  25
WAUPACA        LGT SNOW  36  33  91 NE8       29.87S WCI  29
WAUTOMA        LGT RAIN  35  34  96 NE15G21   29.84S WCI  25
WISC RAPIDS    CLOUDY    38  35  89 E15G22    29.84F WCI  29
CAMP DOUGLAS   NOT AVBL
$$

WIZ011>013-019>022-031-037>040-048>050-302000-
NORTHEAST WISCONSIN

CITY           SKY/WX    TMP DP  RH WIND       PRES   REMARKS
ANTIGO         CLOUDY    36  33  88 E10G20    29.90S WCI  28
SHAWANO        DRIZZLE   37  34  90 NE14G20   29.91F WCI  28
OCONTO         CLOUDY    34  33  95 NE13G20   29.94S WCI  25
STURGEON BAY   LGT SNOW  34  33  96 NE10      29.92F FOG     WCI  26
GREEN BAY      LGT SNOW  34  34 100 NE18      29.89F FOG     WCI  23
MANITOWOC      NOT AVBL
APPLETON       LGT RAIN  34  34 100 NE15G23   29.84F WCI  24
CLINTONVILLE   DRIZZLE   36  34  93 E14G22    29.89F WCI  27
OSHKOSH        CLOUDY    37  35  92 NE13      29.82F FOG     WCI  29
$$

WIZ032>034-041-042-053>061-302000-
SOUTHWEST WISCONSIN

CITY           SKY/WX    TMP DP  RH WIND       PRES   REMARKS
LA CROSSE      CLOUDY    41  36  82 NE9G21    29.79S
SPARTA         CLOUDY    38  37  95 E17G24    29.79F WCI  28
VIROQUA        CLOUDY    38  36  95 E15G25    29.75R WCI  29
BOSCOBEL       LGT RAIN  41  37  86 NE9G18    29.73F
PRAIRIE DU CHI DRIZZLE   38  37  97 N9        29.74F WCI  31
PLATTEVILLE    CLOUDY    39  39  99 NE17G25   29.67F WCI  30
$$

WIZ056-057-062-063-064-067-068-302000-
SOUTH CENTRAL WISCONSIN

CITY           SKY/WX    TMP DP  RH WIND       PRES   REMARKS
REEDSBURG      LGT RAIN  37  37 100 NE14      29.77F WCI  28
BARABOO/DELLS  LGT RAIN  37  36  93 E14G21    29.78S WCI  29
LONE ROCK      NOT AVBL
MINERAL POINT  CLOUDY    37  37 100 NE16G22   29.69F WCI  28
MADISON        RAIN      39  36  89 NE17      29.74F FOG     WCI  30
MIDDLETON      CLOUDY    39  39 100 NE14      29.74F WCI  31
WATERTOWN      LGT RAIN  38  38 100 NE18G25   29.74F WCI  28
MONROE         LGT RAIN  37  37 100 NE20      29.68S WCI  27
JANESVILLE     RAIN      39  39 100 NE12      29.70S WCI  32
$$

WIZ051-052-058>065-066-070>072-302000-
SOUTHEAST WISCONSIN

CITY           SKY/WX    TMP DP  RH WIND       PRES   REMARKS
MILWAUKEE      LGT RAIN  39  36  89 N15G25    29.70F FOG     WCI  31
WAUKESHA       LGT RAIN  36  36 100 E17G29    29.73F FOG     WCI  25
MILWAUKEE/TIMM RAIN      37  36  93 NE12G21   29.76F WCI  30
RACINE         HVY RAIN  39  37  92 E8        29.75R FOG     WCI  33
KENOSHA        HVY RAIN  40  38  93 E12       29.73R FOG     WCI  33
FOND DU LAC    CLOUDY    39  35  86 E14G24    29.81F WCI  31
SHEBOYGAN      LGT RAIN  37  35  92 NE17      29.82F FOG     WCI  27
WEST BEND      RAIN      36  36 100 E14G22    29.79F WCI  27
JUNEAU         LGT RAIN  37  36  94 NE14G21   29.79S WCI  29
$$

LSZ147-162-302000-
LAKE SUPERIOR

STATION/POSITION TIME  TEMP    WIND        PRES    WAVE
                       AIR SEA DIR/SP/G            HT/PER
                 (UTC) (F)     (DEG/KT/KT) (MB)    (FT/S)
DEVILS ISLAND    1800   35      50/ 14/ 15 1016.5F
PORT WING        1840   36      30/ 20/ 25 1014.2F
SAXON HARBOR     1840   35      30/  8/ 11 1013.9F
$$

LMZ867-665-643>646-302000-
LAKE MICHIGAN

STATION/POSITION TIME  TEMP    WIND        PRES    WAVE
                       AIR SEA DIR/SP/G            HT/PER
                 (UTC) (F)     (DEG/KT/KT) (MB)    (FT/S)
CHAMBERS ISLAND  1840   34      40/ 12/ 16 1014.2F
NORTHPORT PIER   1840   34      70/ 18/ 21 1014.9F
SISTER BAY       1636   35      80/ 10/ 18   N/A
KEWAUNEE LAKESHO 1830   36      40/ 15/ 20 1012.4F
SHEBOYGAN LAKESH 1800   37      40/ 20/ 22 1010.9F
PORT WASHINGTON  1830   38      50/ 14/ 19 1010.2F
MILWAUKEE LAKESH 1830   37      40/ 17/ 19   N/A
KENOSHA   LAKESH 1800   38      40/ 13/ 15 1006.1
$$

TC  - TEMPERATURE IN CELSIUS
VSB - VISIBILITY IN STATUTE MILES
WCI - WIND CHILL INDEX
HX  - HEAT INDEX




USA.gov is the U.S. government's official web portal to all federal, state and local government web resources and services.